This is the latest recevied weather packets stored in our database for station/object KR8N. If no packets are shown the sender has not sent any weather packets the latest 10 day(s).
| Time | Temp. | Humidity | Pressure | Rain* | Wind** | Luminosity | Snow |
|---|---|---|---|---|---|---|---|
| 1777257811 | 10.56° C | 88% | 1021.6 hPa | 0 mm | - | 0 W/m² | - |
| 1777257507 | 10.56° C | 87% | 1021.8 hPa | 0 mm | - | 0 W/m² | - |
| 1777257205 | 11.11° C | 86% | 1021.7 hPa | 0 mm | - | 0 W/m² | - |
| 1777256901 | 11.11° C | 85% | 1021.8 hPa | 0 mm | - | 0 W/m² | - |
| 1777256599 | 11.67° C | 84% | 1021.6 hPa | 0 mm | - | 0 W/m² | - |
| 1777256299 | 11.67° C | 84% | 1021.6 hPa | 0 mm | - | 0 W/m² | - |
| 1777255995 | 11.67° C | 84% | 1021.7 hPa | 0 mm | - | 0 W/m² | - |
| 1777255691 | 11.67° C | 83% | 1021.7 hPa | 0 mm | - | 0 W/m² | - |
| 1777255389 | 11.67° C | 82% | 1021.3 hPa | 0 mm | - | 0 W/m² | - |
| 1777255084 | 11.67° C | 82% | 1021.4 hPa | 0 mm | - | 0 W/m² | - |
| 1777254780 | 12.22° C | 82% | 1021.7 hPa | 0 mm | - | 0 W/m² | - |
| 1777254478 | 12.22° C | 81% | 1021.3 hPa | 0 mm | - | 0 W/m² | - |
| 1777254174 | 12.22° C | 81% | 1021.6 hPa | 0 mm | - | 0 W/m² | - |
| 1777253870 | 12.22° C | 80% | 1021.4 hPa | 0 mm | - | 0 W/m² | - |
| 1777253567 | 12.78° C | 80% | 1021.3 hPa | 0 mm | - | 0 W/m² | - |
| 1777253264 | 12.78° C | 80% | 1021.4 hPa | 0 mm | - | 0 W/m² | - |
| 1777252962 | 12.78° C | 79% | 1021.3 hPa | 0 mm | - | 0 W/m² | - |
| 1777252659 | 12.22° C | 80% | 1021.2 hPa | 0 mm | - | 0 W/m² | - |
| 1777252356 | 12.22° C | 80% | 1021.1 hPa | 0 mm | - | 0 W/m² | - |
| 1777252054 | 12.78° C | 79% | 1021.1 hPa | 0 mm | - | 0 W/m² | - |
| 1777251750 | 12.78° C | 78% | 1021 hPa | 0 mm | - | 0 W/m² | - |
| 1777251447 | 13.33° C | 75% | 1021 hPa | 0 mm | - | 0 W/m² | - |
| 1777251144 | 13.89° C | 74% | 1020.9 hPa | 0 mm | - | 0 W/m² | - |
| 1777250840 | 13.89° C | 74% | 1020.8 hPa | 0 mm | - | 0 W/m² | - |
| 1777250537 | 13.89° C | 74% | 1020.7 hPa | 0 mm | - | 0 W/m² | - |
* Rain latest hour (hover to see other rain measurements)
** Current wind speed in m/s (hover to see current wind gust speed)